Location: *
(50.2903°S, 172.5375°W)
Time: 00:27:20
(UTC+00:00)

Resurs 1-4 Rocket - Pass Details

Date: 23 February 2020
Orbit: 800 x 813 km, 98.6° (Epoch: 28 March)

Event Time Altitude Azimuth Distance (km) Brightness Sun altitude
Exits shadow 12:03:33 70° 179° (S) 869 2.3 -29.6°
Drops below altitude 10° 12:08:19 10° 194° (SSW) 2,423 5.4 -29.6°
Sets 12:10:40 0° 194° (SSW) 3,359 6.3 -29.5°
